Strona główna
METAR-TAF:

METAR-TAF

Lotnisko :

Harding County Airport

Buffalo, Dakota Południowa, Stany Zjednoczone

Szerokość geograficzna: 45-36-16N, Długość geograficzna: 103-32-47W, wysokość: 915 m

Aktualna obserwacja pogody

Raport powstał 37 minut temu, godzina 08:56 UTC
Wiatr 11 kt od północ
Temperatura 15°C
Wilgotność 72%
Ciśnienie 1011 hPa

METAR: K2WX 040856Z AUTO 35011KT 15/10 A2984 RMK AO1 SLP085 T01500100 55004

czas: 03:33 (09:33 UTC)


TAF: brakujący

Obserwacja i prognoza pogody dla ponad 4000 lotnisk (raport METAR i TAF).

Dostępne stacje oznaczono żółtymi i czerwonymi punktami na mapie.

Najedź kursorem aby zobaczyć nazwę stacji.

Kliknij aby zobaczyć obserwacje i prognozy pogody.

Aby zmienić mapę: kliknij na zielony przycisk z czarnym krzyżykiem, aby powiększyć; na zielony przycisk z myślnikiem, aby pomniejszyć; na zielone strzałki, aby przejść do map sąsiednich.


METAR-TAF: